segment_id,date_local,uptime,ped_lft,ped_rgt,ped_total,bike_lft,bike_rgt,bike_total,car_lft,car_rgt,car_total,heavy_lft,heavy_rgt,heavy_total,v85,car_speed0,car_speed10,car_speed20,car_speed30,car_speed40,car_speed50,car_speed60,car_speed70
100024661,2022-07-01 00:00,1.0,,,,113,104,217,,,,,,,
100024661,2022-07-01 01:00,1.0,,,,56,74,130,,,,,,,
100024661,2022-07-01 02:00,1.0,,,,48,27,75,,,,,,,
100024661,2022-07-01 03:00,1.0,,,,21,19,40,,,,,,,
100024661,2022-07-01 04:00,1.0,,,,20,12,32,,,,,,,
100024661,2022-07-01 05:00,1.0,,,,24,33,57,,,,,,,
100024661,2022-07-01 06:00,1.0,,,,47,87,134,,,,,,,
100024661,2022-07-01 07:00,1.0,,,,133,215,348,,,,,,,
100024661,2022-07-01 08:00,1.0,,,,265,435,700,,,,,,,
100024661,2022-07-01 09:00,1.0,,,,254,339,593,,,,,,,
100024661,2022-07-01 10:00,1.0,,,,196,224,420,,,,,,,
100024661,2022-07-01 11:00,1.0,,,,219,198,417,,,,,,,
100024661,2022-07-01 12:00,1.0,,,,268,197,465,,,,,,,
100024661,2022-07-01 13:00,1.0,,,,220,170,390,,,,,,,
100024661,2022-07-01 14:00,1.0,,,,229,183,412,,,,,,,
100024661,2022-07-01 15:00,1.0,,,,289,229,518,,,,,,,
100024661,2022-07-01 16:00,1.0,,,,287,189,476,,,,,,,
100024661,2022-07-01 17:00,1.0,,,,250,223,473,,,,,,,
100024661,2022-07-01 18:00,1.0,,,,325,295,620,,,,,,,
100024661,2022-07-01 19:00,1.0,,,,240,195,435,,,,,,,
100024661,2022-07-01 20:00,1.0,,,,147,142,289,,,,,,,
100024661,2022-07-01 21:00,1.0,,,,119,119,238,,,,,,,
100024661,2022-07-01 22:00,1.0,,,,86,94,180,,,,,,,
100024661,2022-07-01 23:00,1.0,,,,84,88,172,,,,,,,
100024661,2022-07-02 00:00,1.0,,,,75,93,168,,,,,,,
100024661,2022-07-02 01:00,1.0,,,,52,55,107,,,,,,,
100024661,2022-07-02 02:00,1.0,,,,39,34,73,,,,,,,
100024661,2022-07-02 03:00,1.0,,,,25,14,39,,,,,,,
100024661,2022-07-02 04:00,1.0,,,,22,16,38,,,,,,,
100024661,2022-07-02 05:00,1.0,,,,11,12,23,,,,,,,
100024661,2022-07-02 06:00,1.0,,,,24,11,35,,,,,,,
100024661,2022-07-02 07:00,1.0,,,,23,19,42,,,,,,,
100024661,2022-07-02 08:00,1.0,,,,60,58,118,,,,,,,
100024661,2022-07-02 09:00,1.0,,,,128,112,240,,,,,,,
100024661,2022-07-02 10:00,1.0,,,,181,180,361,,,,,,,
100024661,2022-07-02 11:00,1.0,,,,199,182,381,,,,,,,
100024661,2022-07-02 12:00,1.0,,,,217,230,447,,,,,,,
100024661,2022-07-02 13:00,1.0,,,,255,257,512,,,,,,,
100024661,2022-07-02 14:00,1.0,,,,266,273,539,,,,,,,
100024661,2022-07-02 15:00,1.0,,,,285,292,577,,,,,,,
100024661,2022-07-02 16:00,1.0,,,,266,310,576,,,,,,,
100024661,2022-07-02 17:00,1.0,,,,268,315,583,,,,,,,
100024661,2022-07-02 18:00,1.0,,,,309,317,626,,,,,,,
100024661,2022-07-02 19:00,1.0,,,,268,253,521,,,,,,,
100024661,2022-07-02 20:00,1.0,,,,200,232,432,,,,,,,
100024661,2022-07-02 21:00,1.0,,,,131,181,312,,,,,,,
100024661,2022-07-02 22:00,1.0,,,,155,147,302,,,,,,,
100024661,2022-07-02 23:00,1.0,,,,146,114,260,,,,,,,
100024661,2022-07-03 00:00,1.0,,,,129,110,239,,,,,,,
100024661,2022-07-03 01:00,1.0,,,,93,75,168,,,,,,,
100024661,2022-07-03 02:00,1.0,,,,76,42,118,,,,,,,
100024661,2022-07-03 03:00,1.0,,,,32,24,56,,,,,,,
100024661,2022-07-03 04:00,1.0,,,,28,23,51,,,,,,,
100024661,2022-07-03 05:00,1.0,,,,29,13,42,,,,,,,
100024661,2022-07-03 06:00,1.0,,,,21,17,38,,,,,,,
100024661,2022-07-03 07:00,1.0,,,,24,27,51,,,,,,,
100024661,2022-07-03 08:00,1.0,,,,50,29,79,,,,,,,
100024661,2022-07-03 09:00,1.0,,,,87,88,175,,,,,,,
100024661,2022-07-03 10:00,1.0,,,,90,123,213,,,,,,,
100024661,2022-07-03 11:00,1.0,,,,127,149,276,,,,,,,
100024661,2022-07-03 12:00,1.0,,,,171,149,320,,,,,,,
100024661,2022-07-03 13:00,1.0,,,,174,182,356,,,,,,,
100024661,2022-07-03 14:00,1.0,,,,178,221,399,,,,,,,
100024661,2022-07-03 15:00,1.0,,,,180,214,394,,,,,,,
100024661,2022-07-03 16:00,1.0,,,,193,214,407,,,,,,,
100024661,2022-07-03 17:00,1.0,,,,202,180,382,,,,,,,
100024661,2022-07-03 18:00,1.0,,,,222,222,444,,,,,,,
100024661,2022-07-03 19:00,1.0,,,,208,202,410,,,,,,,
100024661,2022-07-03 20:00,1.0,,,,177,147,324,,,,,,,
100024661,2022-07-03 21:00,1.0,,,,139,124,263,,,,,,,
100024661,2022-07-03 22:00,1.0,,,,131,117,248,,,,,,,
100024661,2022-07-03 23:00,1.0,,,,108,68,176,,,,,,,
100024661,2022-07-04 00:00,1.0,,,,34,51,85,,,,,,,
100024661,2022-07-04 01:00,1.0,,,,21,25,46,,,,,,,
100024661,2022-07-04 02:00,1.0,,,,12,12,24,,,,,,,
100024661,2022-07-04 03:00,1.0,,,,8,5,13,,,,,,,
100024661,2022-07-04 04:00,1.0,,,,10,13,23,,,,,,,
100024661,2022-07-04 05:00,1.0,,,,23,46,69,,,,,,,
100024661,2022-07-04 06:00,1.0,,,,66,110,176,,,,,,,
100024661,2022-07-04 07:00,1.0,,,,161,304,465,,,,,,,
100024661,2022-07-04 08:00,1.0,,,,412,700,1112,,,,,,,
100024661,2022-07-04 09:00,1.0,,,,363,503,866,,,,,,,
100024661,2022-07-04 10:00,1.0,,,,201,199,400,,,,,,,
100024661,2022-07-04 11:00,1.0,,,,218,199,417,,,,,,,
100024661,2022-07-04 12:00,1.0,,,,228,229,457,,,,,,,
100024661,2022-07-04 13:00,1.0,,,,201,219,420,,,,,,,
100024661,2022-07-04 14:00,1.0,,,,298,229,527,,,,,,,
100024661,2022-07-04 15:00,1.0,,,,424,281,705,,,,,,,
100024661,2022-07-04 16:00,1.0,,,,452,290,742,,,,,,,
100024661,2022-07-04 17:00,1.0,,,,567,412,979,,,,,,,
100024661,2022-07-04 18:00,1.0,,,,614,511,1125,,,,,,,
100024661,2022-07-04 19:00,1.0,,,,453,430,883,,,,,,,
100024661,2022-07-04 20:00,1.0,,,,271,278,549,,,,,,,
100024661,2022-07-04 21:00,1.0,,,,216,183,399,,,,,,,
100024661,2022-07-04 22:00,1.0,,,,173,136,309,,,,,,,
100024661,2022-07-04 23:00,1.0,,,,130,114,244,,,,,,,
100024661,2022-07-05 00:00,1.0,,,,68,56,124,,,,,,,
100024661,2022-07-05 01:00,1.0,,,,26,27,53,,,,,,,
100024661,2022-07-05 02:00,1.0,,,,10,12,22,,,,,,,
100024661,2022-07-05 03:00,1.0,,,,5,9,14,,,,,,,
100024661,2022-07-05 04:00,1.0,,,,11,17,28,,,,,,,
100024661,2022-07-05 05:00,1.0,,,,25,40,65,,,,,,,
100024661,2022-07-05 06:00,1.0,,,,69,145,214,,,,,,,
100024661,2022-07-05 07:00,1.0,,,,184,325,509,,,,,,,
100024661,2022-07-05 08:00,1.0,,,,464,784,1248,,,,,,,
100024661,2022-07-05 09:00,1.0,,,,404,571,975,,,,,,,
100024661,2022-07-05 10:00,1.0,,,,272,259,531,,,,,,,
100024661,2022-07-05 11:00,1.0,,,,238,212,450,,,,,,,
100024661,2022-07-05 12:00,1.0,,,,268,206,474,,,,,,,
100024661,2022-07-05 13:00,1.0,,,,268,276,544,,,,,,,
100024661,2022-07-05 14:00,1.0,,,,311,276,587,,,,,,,
100024661,2022-07-05 15:00,1.0,,,,452,312,764,,,,,,,
100024661,2022-07-05 16:00,1.0,,,,518,385,903,,,,,,,
100024661,2022-07-05 17:00,1.0,,,,611,467,1078,,,,,,,
100024661,2022-07-05 18:00,1.0,,,,739,591,1330,,,,,,,
100024661,2022-07-05 19:00,1.0,,,,461,462,923,,,,,,,
100024661,2022-07-05 20:00,1.0,,,,299,270,569,,,,,,,
100024661,2022-07-05 21:00,1.0,,,,224,198,422,,,,,,,
100024661,2022-07-05 22:00,1.0,,,,235,187,422,,,,,,,
100024661,2022-07-05 23:00,1.0,,,,160,112,272,,,,,,,
100024661,2022-07-06 00:00,1.0,,,,87,98,185,,,,,,,
100024661,2022-07-06 01:00,1.0,,,,36,33,69,,,,,,,
100024661,2022-07-06 02:00,1.0,,,,18,16,34,,,,,,,
100024661,2022-07-06 03:00,1.0,,,,12,13,25,,,,,,,
100024661,2022-07-06 04:00,1.0,,,,14,10,24,,,,,,,
100024661,2022-07-06 05:00,1.0,,,,22,31,53,,,,,,,
100024661,2022-07-06 06:00,1.0,,,,76,96,172,,,,,,,
100024661,2022-07-06 07:00,1.0,,,,144,317,461,,,,,,,
100024661,2022-07-06 08:00,1.0,,,,408,707,1115,,,,,,,
100024661,2022-07-06 09:00,1.0,,,,423,529,952,,,,,,,
100024661,2022-07-06 10:00,1.0,,,,239,266,505,,,,,,,
100024661,2022-07-06 11:00,1.0,,,,241,197,438,,,,,,,
100024661,2022-07-06 12:00,1.0,,,,251,228,479,,,,,,,
100024661,2022-07-06 13:00,1.0,,,,264,270,534,,,,,,,
100024661,2022-07-06 14:00,1.0,,,,294,238,532,,,,,,,
100024661,2022-07-06 15:00,1.0,,,,359,248,607,,,,,,,
100024661,2022-07-06 16:00,1.0,,,,431,294,725,,,,,,,
100024661,2022-07-06 17:00,1.0,,,,605,426,1031,,,,,,,
100024661,2022-07-06 18:00,1.0,,,,620,525,1145,,,,,,,
100024661,2022-07-06 19:00,1.0,,,,432,384,816,,,,,,,
100024661,2022-07-06 20:00,1.0,,,,251,270,521,,,,,,,
100024661,2022-07-06 21:00,1.0,,,,204,171,375,,,,,,,
100024661,2022-07-06 22:00,1.0,,,,203,153,356,,,,,,,
100024661,2022-07-06 23:00,1.0,,,,148,123,271,,,,,,,
100024661,2022-07-07 00:00,1.0,,,,68,80,148,,,,,,,
100024661,2022-07-07 01:00,1.0,,,,30,30,60,,,,,,,
100024661,2022-07-07 02:00,1.0,,,,24,17,41,,,,,,,
100024661,2022-07-07 03:00,1.0,,,,10,7,17,,,,,,,
100024661,2022-07-07 04:00,1.0,,,,6,8,14,,,,,,,
100024661,2022-07-07 05:00,1.0,,,,12,25,37,,,,,,,
100024661,2022-07-07 06:00,1.0,,,,26,48,74,,,,,,,
100024661,2022-07-07 07:00,1.0,,,,59,84,143,,,,,,,
100024661,2022-07-07 08:00,1.0,,,,103,168,271,,,,,,,
100024661,2022-07-07 09:00,1.0,,,,140,170,310,,,,,,,
100024661,2022-07-07 10:00,1.0,,,,97,116,213,,,,,,,
100024661,2022-07-07 11:00,1.0,,,,94,97,191,,,,,,,
100024661,2022-07-07 12:00,1.0,,,,123,102,225,,,,,,,
100024661,2022-07-07 13:00,1.0,,,,109,119,228,,,,,,,
100024661,2022-07-07 14:00,1.0,,,,156,93,249,,,,,,,
100024661,2022-07-07 15:00,1.0,,,,172,126,298,,,,,,,
100024661,2022-07-07 16:00,1.0,,,,206,186,392,,,,,,,
100024661,2022-07-07 17:00,1.0,,,,205,179,384,,,,,,,
100024661,2022-07-07 18:00,1.0,,,,249,188,437,,,,,,,
100024661,2022-07-07 19:00,1.0,,,,138,126,264,,,,,,,
100024661,2022-07-07 20:00,1.0,,,,98,98,196,,,,,,,
100024661,2022-07-07 21:00,1.0,,,,92,79,171,,,,,,,
100024661,2022-07-07 22:00,1.0,,,,80,71,151,,,,,,,
100024661,2022-07-07 23:00,1.0,,,,54,52,106,,,,,,,
100024661,2022-07-08 00:00,1.0,,,,40,28,68,,,,,,,
100024661,2022-07-08 01:00,1.0,,,,19,24,43,,,,,,,
100024661,2022-07-08 02:00,1.0,,,,11,9,20,,,,,,,
100024661,2022-07-08 03:00,1.0,,,,10,7,17,,,,,,,
100024661,2022-07-08 04:00,1.0,,,,9,8,17,,,,,,,
100024661,2022-07-08 05:00,1.0,,,,20,28,48,,,,,,,
100024661,2022-07-08 06:00,1.0,,,,41,81,122,,,,,,,
100024661,2022-07-08 07:00,1.0,,,,102,171,273,,,,,,,
100024661,2022-07-08 08:00,1.0,,,,200,376,576,,,,,,,
100024661,2022-07-08 09:00,1.0,,,,235,362,597,,,,,,,
100024661,2022-07-08 10:00,1.0,,,,178,186,364,,,,,,,
100024661,2022-07-08 11:00,1.0,,,,184,162,346,,,,,,,
100024661,2022-07-08 12:00,1.0,,,,211,179,390,,,,,,,
100024661,2022-07-08 13:00,1.0,,,,235,216,451,,,,,,,
100024661,2022-07-08 14:00,1.0,,,,288,197,485,,,,,,,
100024661,2022-07-08 15:00,1.0,,,,334,249,583,,,,,,,
100024661,2022-07-08 16:00,1.0,,,,319,243,562,,,,,,,
100024661,2022-07-08 17:00,1.0,,,,365,294,659,,,,,,,
100024661,2022-07-08 18:00,1.0,,,,381,343,724,,,,,,,
100024661,2022-07-08 19:00,1.0,,,,317,320,637,,,,,,,
100024661,2022-07-08 20:00,1.0,,,,201,224,425,,,,,,,
100024661,2022-07-08 21:00,1.0,,,,143,170,313,,,,,,,
100024661,2022-07-08 22:00,1.0,,,,158,146,304,,,,,,,
100024661,2022-07-08 23:00,1.0,,,,133,124,257,,,,,,,
100024661,2022-07-09 00:00,1.0,,,,98,105,203,,,,,,,
100024661,2022-07-09 01:00,1.0,,,,58,80,138,,,,,,,
100024661,2022-07-09 02:00,1.0,,,,52,47,99,,,,,,,
100024661,2022-07-09 03:00,1.0,,,,31,46,77,,,,,,,
100024661,2022-07-09 04:00,1.0,,,,34,19,53,,,,,,,
100024661,2022-07-09 05:00,1.0,,,,26,16,42,,,,,,,
100024661,2022-07-09 06:00,1.0,,,,21,17,38,,,,,,,
100024661,2022-07-09 07:00,1.0,,,,26,19,45,,,,,,,
100024661,2022-07-09 08:00,1.0,,,,42,34,76,,,,,,,
100024661,2022-07-09 09:00,1.0,,,,78,85,163,,,,,,,
100024661,2022-07-09 10:00,1.0,,,,116,105,221,,,,,,,
100024661,2022-07-09 11:00,1.0,,,,138,117,255,,,,,,,
100024661,2022-07-09 12:00,1.0,,,,123,136,259,,,,,,,
100024661,2022-07-09 13:00,1.0,,,,175,155,330,,,,,,,
100024661,2022-07-09 14:00,1.0,,,,148,151,299,,,,,,,
100024661,2022-07-09 15:00,1.0,,,,160,145,305,,,,,,,
100024661,2022-07-09 16:00,1.0,,,,153,138,291,,,,,,,
100024661,2022-07-09 17:00,1.0,,,,183,194,377,,,,,,,
100024661,2022-07-09 18:00,1.0,,,,212,196,408,,,,,,,
100024661,2022-07-09 19:00,1.0,,,,141,177,318,,,,,,,
100024661,2022-07-09 20:00,1.0,,,,138,160,298,,,,,,,
100024661,2022-07-09 21:00,1.0,,,,124,126,250,,,,,,,
100024661,2022-07-09 22:00,1.0,,,,115,132,247,,,,,,,
100024661,2022-07-09 23:00,1.0,,,,109,95,204,,,,,,,
100024661,2022-07-10 00:00,1.0,,,,83,66,149,,,,,,,
100024661,2022-07-10 01:00,1.0,,,,60,51,111,,,,,,,
100024661,2022-07-10 02:00,1.0,,,,47,36,83,,,,,,,
100024661,2022-07-10 03:00,1.0,,,,23,19,42,,,,,,,
100024661,2022-07-10 04:00,1.0,,,,22,18,40,,,,,,,
100024661,2022-07-10 05:00,1.0,,,,13,12,25,,,,,,,
100024661,2022-07-10 06:00,1.0,,,,14,17,31,,,,,,,
100024661,2022-07-10 07:00,1.0,,,,22,17,39,,,,,,,
100024661,2022-07-10 08:00,1.0,,,,40,28,68,,,,,,,
100024661,2022-07-10 09:00,1.0,,,,60,60,120,,,,,,,
100024661,2022-07-10 10:00,1.0,,,,80,88,168,,,,,,,
100024661,2022-07-10 11:00,1.0,,,,81,109,190,,,,,,,
100024661,2022-07-10 12:00,1.0,,,,144,118,262,,,,,,,
100024661,2022-07-10 13:00,1.0,,,,133,124,257,,,,,,,
100024661,2022-07-10 14:00,1.0,,,,195,170,365,,,,,,,
100024661,2022-07-10 15:00,1.0,,,,166,173,339,,,,,,,
100024661,2022-07-10 16:00,1.0,,,,161,157,318,,,,,,,
100024661,2022-07-10 17:00,1.0,,,,215,165,380,,,,,,,
100024661,2022-07-10 18:00,1.0,,,,186,203,389,,,,,,,
100024661,2022-07-10 19:00,1.0,,,,197,163,360,,,,,,,
100024661,2022-07-10 20:00,1.0,,,,130,124,254,,,,,,,
100024661,2022-07-10 21:00,1.0,,,,122,81,203,,,,,,,
100024661,2022-07-10 22:00,1.0,,,,84,79,163,,,,,,,
100024661,2022-07-10 23:00,1.0,,,,56,60,116,,,,,,,
100024661,2022-07-11 00:00,1.0,,,,28,45,73,,,,,,,
100024661,2022-07-11 01:00,1.0,,,,13,23,36,,,,,,,
100024661,2022-07-11 02:00,1.0,,,,6,10,16,,,,,,,
100024661,2022-07-11 03:00,1.0,,,,1,2,3,,,,,,,
100024661,2022-07-11 04:00,1.0,,,,7,16,23,,,,,,,
100024661,2022-07-11 05:00,1.0,,,,12,33,45,,,,,,,
100024661,2022-07-11 06:00,1.0,,,,54,79,133,,,,,,,
100024661,2022-07-11 07:00,1.0,,,,127,236,363,,,,,,,
100024661,2022-07-11 08:00,1.0,,,,326,555,881,,,,,,,
100024661,2022-07-11 09:00,1.0,,,,312,449,761,,,,,,,
100024661,2022-07-11 10:00,1.0,,,,186,192,378,,,,,,,
100024661,2022-07-11 11:00,1.0,,,,196,171,367,,,,,,,
100024661,2022-07-11 12:00,1.0,,,,199,172,371,,,,,,,
100024661,2022-07-11 13:00,1.0,,,,238,182,420,,,,,,,
100024661,2022-07-11 14:00,1.0,,,,246,243,489,,,,,,,
100024661,2022-07-11 15:00,1.0,,,,347,269,616,,,,,,,
100024661,2022-07-11 16:00,1.0,,,,448,280,728,,,,,,,
100024661,2022-07-11 17:00,1.0,,,,529,402,931,,,,,,,
100024661,2022-07-11 18:00,1.0,,,,605,464,1069,,,,,,,
100024661,2022-07-11 19:00,1.0,,,,416,353,769,,,,,,,
100024661,2022-07-11 20:00,1.0,,,,245,238,483,,,,,,,
100024661,2022-07-11 21:00,1.0,,,,215,130,345,,,,,,,
100024661,2022-07-11 22:00,1.0,,,,157,130,287,,,,,,,
100024661,2022-07-11 23:00,1.0,,,,89,77,166,,,,,,,
100024661,2022-07-12 00:00,1.0,,,,45,53,98,,,,,,,
100024661,2022-07-12 01:00,1.0,,,,24,24,48,,,,,,,
100024661,2022-07-12 02:00,1.0,,,,18,10,28,,,,,,,
100024661,2022-07-12 03:00,1.0,,,,20,13,33,,,,,,,
100024661,2022-07-12 04:00,1.0,,,,8,14,22,,,,,,,
100024661,2022-07-12 05:00,1.0,,,,19,45,64,,,,,,,
100024661,2022-07-12 06:00,1.0,,,,54,122,176,,,,,,,
100024661,2022-07-12 07:00,1.0,,,,158,246,404,,,,,,,
100024661,2022-07-12 08:00,1.0,,,,383,667,1050,,,,,,,
100024661,2022-07-12 09:00,1.0,,,,357,540,897,,,,,,,
100024661,2022-07-12 10:00,1.0,,,,200,220,420,,,,,,,
100024661,2022-07-12 11:00,1.0,,,,218,211,429,,,,,,,
100024661,2022-07-12 12:00,1.0,,,,222,185,407,,,,,,,
100024661,2022-07-12 13:00,1.0,,,,272,217,489,,,,,,,
100024661,2022-07-12 14:00,1.0,,,,293,270,563,,,,,,,
100024661,2022-07-12 15:00,1.0,,,,381,262,643,,,,,,,
100024661,2022-07-12 16:00,1.0,,,,445,326,771,,,,,,,
100024661,2022-07-12 17:00,1.0,,,,570,386,956,,,,,,,
100024661,2022-07-12 18:00,1.0,,,,614,574,1188,,,,,,,
100024661,2022-07-12 19:00,1.0,,,,461,451,912,,,,,,,
100024661,2022-07-12 20:00,1.0,,,,301,269,570,,,,,,,
100024661,2022-07-12 21:00,1.0,,,,209,199,408,,,,,,,
100024661,2022-07-12 22:00,1.0,,,,204,133,337,,,,,,,
100024661,2022-07-12 23:00,1.0,,,,178,115,293,,,,,,,
100024661,2022-07-13 00:00,1.0,,,,98,69,167,,,,,,,
100024661,2022-07-13 01:00,1.0,,,,30,36,66,,,,,,,
100024661,2022-07-13 02:00,1.0,,,,31,7,38,,,,,,,
100024661,2022-07-13 03:00,1.0,,,,11,6,17,,,,,,,
100024661,2022-07-13 04:00,1.0,,,,8,11,19,,,,,,,
100024661,2022-07-13 05:00,1.0,,,,17,45,62,,,,,,,
100024661,2022-07-13 06:00,1.0,,,,59,119,178,,,,,,,
100024661,2022-07-13 07:00,1.0,,,,143,233,376,,,,,,,
100024661,2022-07-13 08:00,1.0,,,,324,601,925,,,,,,,
100024661,2022-07-13 09:00,1.0,,,,393,522,915,,,,,,,
100024661,2022-07-13 10:00,1.0,,,,219,221,440,,,,,,,
100024661,2022-07-13 11:00,1.0,,,,192,196,388,,,,,,,
100024661,2022-07-13 12:00,1.0,,,,241,216,457,,,,,,,
100024661,2022-07-13 13:00,1.0,,,,241,224,465,,,,,,,
100024661,2022-07-13 14:00,1.0,,,,252,246,498,,,,,,,
100024661,2022-07-13 15:00,1.0,,,,363,207,570,,,,,,,
100024661,2022-07-13 16:00,1.0,,,,368,297,665,,,,,,,
100024661,2022-07-13 17:00,1.0,,,,493,441,934,,,,,,,
100024661,2022-07-13 18:00,1.0,,,,666,534,1200,,,,,,,
100024661,2022-07-13 19:00,1.0,,,,425,375,800,,,,,,,
100024661,2022-07-13 20:00,1.0,,,,277,253,530,,,,,,,
100024661,2022-07-13 21:00,1.0,,,,214,182,396,,,,,,,
100024661,2022-07-13 22:00,1.0,,,,193,180,373,,,,,,,
100024661,2022-07-13 23:00,1.0,,,,175,130,305,,,,,,,
100024661,2022-07-14 00:00,1.0,,,,112,82,194,,,,,,,
100024661,2022-07-14 01:00,1.0,,,,54,39,93,,,,,,,
100024661,2022-07-14 02:00,1.0,,,,24,23,47,,,,,,,
100024661,2022-07-14 03:00,1.0,,,,21,13,34,,,,,,,
100024661,2022-07-14 04:00,1.0,,,,13,12,25,,,,,,,
100024661,2022-07-14 05:00,1.0,,,,26,53,79,,,,,,,
100024661,2022-07-14 06:00,1.0,,,,48,103,151,,,,,,,
100024661,2022-07-14 07:00,1.0,,,,131,252,383,,,,,,,
100024661,2022-07-14 08:00,1.0,,,,340,602,942,,,,,,,
100024661,2022-07-14 09:00,1.0,,,,345,505,850,,,,,,,
100024661,2022-07-14 10:00,1.0,,,,226,215,441,,,,,,,
100024661,2022-07-14 11:00,1.0,,,,207,208,415,,,,,,,
100024661,2022-07-14 12:00,1.0,,,,245,240,485,,,,,,,
100024661,2022-07-14 13:00,1.0,,,,260,236,496,,,,,,,
100024661,2022-07-14 14:00,1.0,,,,284,224,508,,,,,,,
100024661,2022-07-14 15:00,1.0,,,,343,235,578,,,,,,,
100024661,2022-07-14 16:00,1.0,,,,429,300,729,,,,,,,
100024661,2022-07-14 17:00,1.0,,,,522,398,920,,,,,,,
100024661,2022-07-14 18:00,1.0,,,,638,537,1175,,,,,,,
100024661,2022-07-14 19:00,1.0,,,,426,398,824,,,,,,,
100024661,2022-07-14 20:00,1.0,,,,252,249,501,,,,,,,
100024661,2022-07-14 21:00,1.0,,,,221,193,414,,,,,,,
100024661,2022-07-14 22:00,1.0,,,,227,176,403,,,,,,,
100024661,2022-07-14 23:00,1.0,,,,158,136,294,,,,,,,
100024661,2022-07-15 00:00,1.0,,,,83,54,137,,,,,,,
100024661,2022-07-15 01:00,1.0,,,,28,38,66,,,,,,,
100024661,2022-07-15 02:00,1.0,,,,39,18,57,,,,,,,
100024661,2022-07-15 03:00,1.0,,,,24,5,29,,,,,,,
100024661,2022-07-15 04:00,1.0,,,,17,15,32,,,,,,,
100024661,2022-07-15 05:00,1.0,,,,24,33,57,,,,,,,
100024661,2022-07-15 06:00,1.0,,,,48,92,140,,,,,,,
100024661,2022-07-15 07:00,1.0,,,,114,160,274,,,,,,,
100024661,2022-07-15 08:00,1.0,,,,268,388,656,,,,,,,
100024661,2022-07-15 09:00,1.0,,,,260,342,602,,,,,,,
100024661,2022-07-15 10:00,1.0,,,,188,185,373,,,,,,,
100024661,2022-07-15 11:00,1.0,,,,176,143,319,,,,,,,
100024661,2022-07-15 12:00,1.0,,,,217,202,419,,,,,,,
100024661,2022-07-15 13:00,1.0,,,,193,221,414,,,,,,,
100024661,2022-07-15 14:00,1.0,,,,248,219,467,,,,,,,
100024661,2022-07-15 15:00,1.0,,,,330,230,560,,,,,,,
100024661,2022-07-15 16:00,1.0,,,,344,255,599,,,,,,,
100024661,2022-07-15 17:00,1.0,,,,337,328,665,,,,,,,
100024661,2022-07-15 18:00,1.0,,,,374,331,705,,,,,,,
100024661,2022-07-15 19:00,1.0,,,,310,328,638,,,,,,,
100024661,2022-07-15 20:00,1.0,,,,218,209,427,,,,,,,
100024661,2022-07-15 21:00,1.0,,,,147,136,283,,,,,,,
100024661,2022-07-15 22:00,1.0,,,,157,114,271,,,,,,,
100024661,2022-07-15 23:00,1.0,,,,137,104,241,,,,,,,
100024661,2022-07-16 00:00,1.0,,,,94,85,179,,,,,,,
100024661,2022-07-16 01:00,1.0,,,,61,48,109,,,,,,,
100024661,2022-07-16 02:00,1.0,,,,48,30,78,,,,,,,
100024661,2022-07-16 03:00,1.0,,,,36,19,55,,,,,,,
100024661,2022-07-16 04:00,1.0,,,,25,14,39,,,,,,,
100024661,2022-07-16 05:00,1.0,,,,13,10,23,,,,,,,
100024661,2022-07-16 06:00,1.0,,,,16,17,33,,,,,,,
100024661,2022-07-16 07:00,1.0,,,,21,14,35,,,,,,,
100024661,2022-07-16 08:00,1.0,,,,21,15,36,,,,,,,
100024661,2022-07-16 09:00,1.0,,,,50,50,100,,,,,,,
100024661,2022-07-16 10:00,1.0,,,,94,69,163,,,,,,,
100024661,2022-07-16 11:00,1.0,,,,129,112,241,,,,,,,
100024661,2022-07-16 12:00,1.0,,,,145,150,295,,,,,,,
100024661,2022-07-16 13:00,1.0,,,,192,183,375,,,,,,,
100024661,2022-07-16 14:00,1.0,,,,220,231,451,,,,,,,
100024661,2022-07-16 15:00,1.0,,,,189,225,414,,,,,,,
100024661,2022-07-16 16:00,1.0,,,,229,214,443,,,,,,,
100024661,2022-07-16 17:00,1.0,,,,224,243,467,,,,,,,
100024661,2022-07-16 18:00,1.0,,,,218,231,449,,,,,,,
100024661,2022-07-16 19:00,1.0,,,,199,215,414,,,,,,,
100024661,2022-07-16 20:00,1.0,,,,154,179,333,,,,,,,
100024661,2022-07-16 21:00,1.0,,,,134,132,266,,,,,,,
100024661,2022-07-16 22:00,1.0,,,,119,87,206,,,,,,,
100024661,2022-07-16 23:00,1.0,,,,106,68,174,,,,,,,
100024661,2022-07-17 00:00,1.0,,,,88,71,159,,,,,,,
100024661,2022-07-17 01:00,1.0,,,,55,58,113,,,,,,,
100024661,2022-07-17 02:00,1.0,,,,56,40,96,,,,,,,
100024661,2022-07-17 03:00,1.0,,,,31,34,65,,,,,,,
100024661,2022-07-17 04:00,1.0,,,,16,19,35,,,,,,,
100024661,2022-07-17 05:00,1.0,,,,21,9,30,,,,,,,
100024661,2022-07-17 06:00,1.0,,,,26,15,41,,,,,,,
100024661,2022-07-17 07:00,1.0,,,,33,17,50,,,,,,,
100024661,2022-07-17 08:00,1.0,,,,43,23,66,,,,,,,
100024661,2022-07-17 09:00,1.0,,,,74,65,139,,,,,,,
100024661,2022-07-17 10:00,1.0,,,,72,65,137,,,,,,,
100024661,2022-07-17 11:00,1.0,,,,99,113,212,,,,,,,
100024661,2022-07-17 12:00,1.0,,,,144,115,259,,,,,,,
100024661,2022-07-17 13:00,1.0,,,,163,143,306,,,,,,,
100024661,2022-07-17 14:00,1.0,,,,193,173,366,,,,,,,
100024661,2022-07-17 15:00,1.0,,,,204,221,425,,,,,,,
100024661,2022-07-17 16:00,1.0,,,,170,245,415,,,,,,,
100024661,2022-07-17 17:00,1.0,,,,222,208,430,,,,,,,
100024661,2022-07-17 18:00,1.0,,,,201,216,417,,,,,,,
100024661,2022-07-17 19:00,1.0,,,,203,209,412,,,,,,,
100024661,2022-07-17 20:00,1.0,,,,175,165,340,,,,,,,
100024661,2022-07-17 21:00,1.0,,,,165,146,311,,,,,,,
100024661,2022-07-17 22:00,1.0,,,,114,89,203,,,,,,,
100024661,2022-07-17 23:00,1.0,,,,72,62,134,,,,,,,
100024661,2022-07-18 00:00,1.0,,,,41,33,74,,,,,,,
100024661,2022-07-18 01:00,1.0,,,,24,20,44,,,,,,,
100024661,2022-07-18 02:00,1.0,,,,14,3,17,,,,,,,
100024661,2022-07-18 03:00,1.0,,,,10,8,18,,,,,,,
100024661,2022-07-18 04:00,1.0,,,,8,18,26,,,,,,,
100024661,2022-07-18 05:00,1.0,,,,22,36,58,,,,,,,
100024661,2022-07-18 06:00,1.0,,,,49,89,138,,,,,,,
100024661,2022-07-18 07:00,1.0,,,,115,239,354,,,,,,,
100024661,2022-07-18 08:00,1.0,,,,285,540,825,,,,,,,
100024661,2022-07-18 09:00,1.0,,,,297,427,724,,,,,,,
100024661,2022-07-18 10:00,1.0,,,,189,211,400,,,,,,,
100024661,2022-07-18 11:00,1.0,,,,184,152,336,,,,,,,
100024661,2022-07-18 12:00,1.0,,,,180,188,368,,,,,,,
100024661,2022-07-18 13:00,1.0,,,,223,186,409,,,,,,,
100024661,2022-07-18 14:00,1.0,,,,244,182,426,,,,,,,
100024661,2022-07-18 15:00,1.0,,,,297,222,519,,,,,,,
100024661,2022-07-18 16:00,1.0,,,,399,280,679,,,,,,,
100024661,2022-07-18 17:00,1.0,,,,506,366,872,,,,,,,
100024661,2022-07-18 18:00,1.0,,,,595,481,1076,,,,,,,
100024661,2022-07-18 19:00,1.0,,,,372,347,719,,,,,,,
100024661,2022-07-18 20:00,1.0,,,,261,260,521,,,,,,,
100024661,2022-07-18 21:00,1.0,,,,211,159,370,,,,,,,
100024661,2022-07-18 22:00,1.0,,,,171,108,279,,,,,,,
100024661,2022-07-18 23:00,1.0,,,,111,91,202,,,,,,,
100024661,2022-07-19 00:00,1.0,,,,50,62,112,,,,,,,
100024661,2022-07-19 01:00,1.0,,,,25,26,51,,,,,,,
100024661,2022-07-19 02:00,1.0,,,,11,16,27,,,,,,,
100024661,2022-07-19 03:00,1.0,,,,10,8,18,,,,,,,
100024661,2022-07-19 04:00,1.0,,,,18,17,35,,,,,,,
100024661,2022-07-19 05:00,1.0,,,,18,40,58,,,,,,,
100024661,2022-07-19 06:00,1.0,,,,55,113,168,,,,,,,
100024661,2022-07-19 07:00,1.0,,,,158,256,414,,,,,,,
100024661,2022-07-19 08:00,1.0,,,,327,595,922,,,,,,,
100024661,2022-07-19 09:00,1.0,,,,354,494,848,,,,,,,
100024661,2022-07-19 10:00,1.0,,,,203,173,376,,,,,,,
100024661,2022-07-19 11:00,1.0,,,,174,176,350,,,,,,,
100024661,2022-07-19 12:00,1.0,,,,238,197,435,,,,,,,
100024661,2022-07-19 13:00,1.0,,,,200,203,403,,,,,,,
100024661,2022-07-19 14:00,1.0,,,,246,206,452,,,,,,,
100024661,2022-07-19 15:00,1.0,,,,348,225,573,,,,,,,